{"data":{"norad_id":48424,"intl_designator":"2021-039B","name":"YAOGAN-30 09B","alt_names":[],"object_type":"PAYLOAD","status":"ACTIVE","operator":null,"country":"PRC","launch_date":"2021-05-06","launch_site_code":"XICLF","launch_vehicle":null,"mission":null,"orbit_class":"UNKNOWN","rcs_meters":null,"size_class":null,"mass_kg":null,"dimensions":null,"purposes":[],"wikipedia_slug":null,"has_3d_model":false,"image_url":null,"decayed_at":null,"tle_current":{"epoch":"2026-05-25T05:13:36.585120Z","epoch_age_seconds":52845,"freshness":"FRESH","line1":"1 48424U 21039B   26145.21778455  .00001778  00000+0  13310-3 0  9997","line2":"2 48424  34.9940 171.0356 0004424 335.5817  24.4681 15.02574888276088","mean_motion":15.02574888,"eccentricity":0.0004424,"inclination_deg":34.994,"raan_deg":171.0356,"arg_perigee_deg":335.5817,"mean_anomaly_deg":24.4681,"bstar":0.0001331,"rev_number":27608,"period_min":95.835489565296,"perigee_km":555.89086693021,"apogee_km":562.02881021298,"semimajor_km":6937.0968385716,"source":"CELESTRAK","updated_at":"2026-05-25T13:37:56.818042Z"}}}